Flag for Canada Weather past 2 weeks in Rouyn-Noranda, Quebec, Canada

Now
61 °F

Overcast.


Feels Like: 61 °F
Forecast: 56 / 69 °F
Wind: 5 mph from Southeast

Location: Rouyn Airport

Current Time: Jul 26, 2014 at 1:33:56 AM

Latest Report: Jul 26, 2014 at 1:00 AM


Visibility: 15 mi

Pressure: 29.78 "Hg

Humidity: 83%

Dew point: 55 °F

Location of Rouyn-NorandaLocation

Historic Weather in Rouyn-Noranda — Graph

°F

Rouyn-Noranda temperature yesterday

Maximum temperature yesterday: 77 °F (at 3:00 PM)
Minimum temperature yesterday: 57 °F (at 3:00 AM)
Average temperature yesterday: 66 °F

Past Weeks' High & Low Weather Summary

 TemperatureHumidityPressure
High79 °F (Jul 18, 5:00 PM)100% (Jul 13, 5:00 AM)30.20 "Hg (Jul 13, 5:00 AM)
Low43 °F (Jul 24, 12:00 AM)39% (Jul 19, 2:00 PM)29.55 "Hg (Jul 13, 3:00 PM)
Average63 °F75%29.93 "Hg
* Reported Midnight between Jul 10 and Jul 11 — Midnight between Jul 25 and Jul 26, Rouyn-Noranda, Weather by CustomWeather, © 2014

Note: Actual official high and low records may vary slightly from our data, if they occured in-between our weather recording intervals... More about our weather records

Advertising

Rouyn-Noranda weather history for previous 24 hours

 ConditionsComfort  
Time TempWeatherWind HumidityBarometerVisibility
12:00 AM
Jul 26
63 °FPassing clouds.6 mph77%29.78 "Hg15 mi
11:00 PM
Jul 25
63 °FPassing clouds.7 mph73%29.77 "Hg15 mi
10:00 PM64 °FMostly cloudy.3 mph68%29.76 "Hg15 mi
9:00 PM66 °FPartly sunny.2 mph60%29.75 "Hg15 mi
8:00 PM70 °FOvercast.6 mph53%29.75 "Hg15 mi
7:00 PM75 °FBroken clouds.8 mph44%29.74 "Hg15 mi
6:00 PM75 °FPartly sunny.15 mph44%29.74 "Hg15 mi
5:00 PM77 °FScattered clouds.15 mph42%29.76 "Hg15 mi
4:00 PM75 °FPartly sunny.17 mph44%29.78 "Hg15 mi
3:00 PM77 °FBroken clouds.16 mph42%29.79 "Hg15 mi
2:00 PM75 °FScattered clouds.21 mph44%29.79 "Hg15 mi
1:00 PM72 °FPartly sunny.17 mph53%29.83 "Hg15 mi
12:00 PM66 °FPartly sunny.15 mph60%29.85 "Hg15 mi
11:00 AM68 °FPartly sunny.13 mph60%29.85 "Hg15 mi
10:00 AM64 °FPartly sunny.10 mph64%29.87 "Hg15 mi
9:00 AM63 °FScattered clouds.12 mph73%29.88 "Hg15 mi
8:00 AM59 °FPartly sunny.8 mph82%29.88 "Hg15 mi
7:00 AM57 °FScattered showers. Mostly cloudy.8 mph88%29.88 "Hg15 mi
6:00 AM57 °FOvercast.8 mph88%29.87 "Hg15 mi
5:00 AM57 °FPassing clouds.8 mph88%29.87 "Hg15 mi
4:00 AM57 °FOvercast.6 mph82%29.86 "Hg15 mi
3:00 AM57 °FOvercast.6 mph88%29.87 "Hg15 mi
2:00 AM61 °FOvercast.7 mph77%29.89 "Hg15 mi
1:00 AM59 °FOvercast.8 mph82%29.90 "Hg15 mi
Weather by CustomWeather, © 2014

See weather overviewHow to use our weather pages